This demonstration page uses our WeatherBlox Daily Observations layout. Learn more.

Left ArrowRight Arrow

44.89941, -97.11507

Hourly Observations for September 30, 2018

Temp ( °F °C ) Dew Point ( °F °C ) Humidity (%) Winds ( mph kmh ) Pressure ( in mb ) Visibility ( mi km ) Precip ( " mm )
12:53 am 00:53 Cloudy 42 5.6 41 5 96 96 Calm 30.20 1023 9 14 0.00 0.00
1:53 am 01:53 Cloudy 42 5.6 41 5 96 96 N 3 6 30.21 1023 10 16 0.00 0.00
2:35 am 02:35 Cloudy with Mist and Fog 41 5 41 5 100 100 NNE 5 7 30.21 1023 3 5 0.00 0.00
2:53 am 02:53 Cloudy with Mist and Fog 41 5 41 5 100 100 NNE 6 9 30.22 1023 3 5 0.00 0.00
2:58 am 02:58 Cloudy with Mist and Fog 41 5 41 5 100 100 NNE 6 9 30.21 1023 3 4 0.00 0.00
3:27 am 03:27 Cloudy with Mist and Fog 41 5 41 5 100 100 NNE 6 9 30.21 1023 3 5 0.00 0.00
3:53 am 03:53 Cloudy 41 5 41 5 100 100 N 7 11 30.22 1023 10 16 0.00 0.00
4:07 am 04:07 Cloudy 41 5 40 4.4 96 96 N 9 15 30.21 1023 10 16 0.00 0.00
4:19 am 04:19 Cloudy 41 5 40 4.4 96 96 N 6 9 30.21 1023 10 16 0.00 0.00
4:48 am 04:48 Cloudy 39 4 39 4 100 100 N 3 6 30.27 1025 10 16 0.00 0.00
4:53 am 04:53 Cloudy 40 4.4 40 4.4 100 100 N 3 6 30.23 1024 10 16 0.00 0.00
5:28 am 05:28 Partly Cloudy 39 3.9 39 3.9 100 100 Calm 30.27 1025 10 16 0.00 0.00
5:53 am 05:53 Clear 38 3.3 38 3.3 100 100 N 5 7 30.25 1024 10 16 0.00 0.00
6:53 am 06:53 Clear 39 3.9 38 3.3 96 96 Calm 30.26 1025 10 16 0.00 0.00
7:53 am 07:53 Sunny 40 4.4 38 3.3 93 93 Calm 30.25 1025 10 16 0.00 0.00
8:53 am 08:53 Mostly Sunny 42 5.6 39 3.9 89 89 NNE 5 7 30.28 1025 10 16 0.00 0.00
9:53 am 09:53 Cloudy 43 6.1 39 3.9 86 86 NNE 6 9 30.28 1025 10 16 0.00 0.00
10:53 am 10:53 Cloudy with Light Rain 43 6.1 39 3.9 86 86 ENE 8 13 30.30 1026 10 16 0.00 0.03
11:26 am 11:26 Cloudy with Light Rain 43 6.1 40 4.4 89 89 NNE 7 11 30.30 1026 10 16 0.02 0.51
11:53 am 11:53 Cloudy with Light Rain 44 6.7 40 4.4 85 85 NE 6 9 30.30 1026 10 16 0.02 0.51
12:53 pm 12:53 Sunny 46 7.8 40 4.4 79 79 NE 7 11 30.31 1026 10 16 0.00 0.03
1:53 pm 13:53 Sunny 48 8.9 40 4.4 74 74 NNE 7 11 30.29 1026 10 16 0.00 0.00
2:53 pm 14:53 Sunny 51 10.6 39 3.9 64 64 ENE 9 15 30.27 1025 10 16 0.00 0.00
3:53 pm 15:53 Partly Cloudy 50 10 38 3.3 63 63 NNE 13 20 30.28 1025 10 16 0.00 0.00
4:53 pm 16:53 Cloudy 49 9.4 39 3.9 69 69 NE 13 20 30.27 1025 10 16 0.00 0.00
5:53 pm 17:53 Cloudy 47 8.3 36 2.2 66 66 NNE 14 22 30.29 1026 10 16 0.00 0.00
6:53 pm 18:53 Cloudy 46 7.8 34 1.1 63 63 NNE 12 19 30.30 1026 10 16 0.00 0.00
7:53 pm 19:53 Cloudy 44 6.7 35 1.7 71 71 NE 13 20 30.29 1026 10 16 0.00 0.00
8:53 pm 20:53 Cloudy 42 5.6 34 1.1 73 73 NE 9 15 30.31 1026 10 16 0.00 0.00
9:53 pm 21:53 Cloudy 42 5.6 34 1.1 73 73 NE 13 20 30.30 1026 10 16 0.00 0.00
10:53 pm 22:53 Cloudy 41 5 34 1.1 76 76 ENE 8 13 30.29 1026 10 16 0.00 0.00
11:53 pm 23:53 Cloudy 41 5 33 0.6 73 73 NE 9 15 30.29 1026 10 16 0.00 0.00

Powered by AerisWeather